RH
48 48 48 48 48 47 46 43 40 41 41 42 41 40 39 39 37 36 36 36 36 37 37 35 33 32 31 24 16 13 12 13 13 13 12 12 12 13 13 14 14 13 11 10 12 14 14 12 10 9 9 8 8 10 11 12 13 15 16 17 15 13 11 10 10 9 9 11 12 11 11 12 12 20 27 22 18 22 27 29 32 32 32 34 37 38 40 42
46 47 47 48 48 48 48 47 45 43 42 42 42 41 40 40 39 37 36 36 37 37 38 36 35 34 34 28 20 15 13 13 13 13 12 12 11 11 12 13 13 14 13 12 12 14 14 13 11 9 8 9 10 11 11 13 14 14 15 16 16 14 13 11 10 9 9 11 12 12 11 14 20 27 29 25 25 26 27 30 33 34 33 34 38 40 40 42
43 44 45 46 47 49 49 49 48 47 45 44 43 43 42 41 40 38 38 37 36 37 37 36 36 35 35 31 23 17 16 15 13 13 13 12 12 11 11 12 13 14 13 13 13 14 14 14 12 10 9 10 12 12 12 13 14 14 14 15 17 17 14 12 11 9 10 11 13 13 11 17 28 34 32 27 27 25 24 30 32 34 36 37 41 41 40 42
41 42 42 43 44 46 48 48 49 50 49 47 45 44 43 43 42 40 40 39 38 38 37 36 36 35 36 33 24 20 20 17 13 13 14 13 12 12 11 11 12 13 13 14 14 14 14 14 13 11 11 12 13 13 12 12 13 14 13 13 17 18 16 14 12 10 11 13 15 14 12 16 25 35 36 29 26 24 24 30 32 33 35 35 39 40 41 42
38 38 39 39 41 42 44 45 47 49 49 49 49 46 45 46 44 42 43 41 39 39 39 38 37 36 37 33 24 22 22 17 14 13 14 14 13 13 12 11 11 12 13 14 15 15 14 14 13 13 13 13 14 13 13 13 13 13 13 14 16 18 17 15 13 11 12 14 16 15 14 14 18 30 39 30 23 24 25 29 32 35 35 34 36 38 40 42
37 36 36 37 39 39 40 41 44 46 48 49 50 49 48 47 46 44 44 43 41 39 40 40 39 38 37 32 24 25 23 16 15 16 14 15 15 14 14 12 11 12 12 13 15 15 15 15 14 15 15 14 14 13 13 14 13 12 13 14 16 18 17 16 15 13 14 16 16 16 15 15 16 24 36 33 27 26 27 29 32 36 38 39 41 41 41 42
34 35 35 36 37 38 38 39 40 42 45 48 49 50 50 49 46 44 44 43 42 41 40 41 40 39 37 31 25 26 26 19 17 18 16 16 16 15 15 13 12 11 12 13 15 15 16 16 15 16 16 14 14 14 14 15 14 13 13 14 16 18 17 16 15 14 16 17 18 17 15 15 16 22 35 37 34 33 32 31 33 37 41 42 45 45 44 44
30 31 32 33 35 37 38 38 39 39 42 46 48 50 51 51 48 44 44 43 43 43 42 42 41 40 38 33 28 29 28 20 16 18 18 17 17 15 15 15 13 12 12 12 14 15 15 17 17 16 16 15 15 14 14 15 14 13 13 14 15 17 17 16 15 15 18 19 18 16 17 20 21 26 36 39 40 40 38 37 36 39 43 44 45 46 46 46
32 30 30 30 31 34 37 38 40 40 41 44 47 50 51 51 50 47 44 43 43 43 43 43 42 42 39 36 34 30 24 18 16 16 17 17 18 16 15 16 15 13 13 13 14 15 15 16 17 16 16 16 16 15 14 14 14 13 13 13 15 17 18 17 16 16 18 19 18 17 24 31 31 33 36 40 43 42 42 42 41 42 45 45 45 46 47 48
33 32 31 30 29 30 33 37 40 41 41 43 46 53 54 52 52 51 46 43 42 42 44 45 43 42 40 37 36 29 21 19 18 16 15 16 17 18 16 16 16 13 13 14 15 15 15 15 17 17 16 17 16 15 15 14 13 13 13 12 14 17 18 17 16 17 19 20 17 19 29 34 33 34 36 40 44 43 44 45 44 45 46 46 46 48 51 51
33 33 32 31 30 30 30 33 36 39 41 43 47 54 58 57 53 53 49 44 43 42 44 45 44 44 41 40 39 30 22 21 21 19 17 16 17 18 18 17 16 14 13 14 15 16 16 15 16 17 16 16 16 15 14 14 12 12 12 11 13 16 17 17 16 18 19 20 18 22 32 31 29 33 36 40 43 43 45 46 46 47 47 46 47 50 53 50
33 33 33 32 31 30 30 30 32 36 39 42 46 51 59 62 58 56 52 47 45 43 42 44 46 45 43 42 39 29 22 22 23 22 20 18 17 18 19 18 17 15 14 15 16 17 17 15 15 16 16 15 16 15 14 13 12 12 12 13 14 15 17 17 17 19 20 19 20 24 30 28 27 33 38 41 41 42 44 46 47 47 47 46 46 51 52 49
34 34 34 33 31 29 28 29 29 32 35 39 42 48 59 66 65 60 56 51 47 43 43 45 46 45 45 43 33 24 22 22 22 22 22 20 18 18 20 19 17 16 15 15 16 18 18 15 14 15 16 16 16 16 15 13 12 12 13 14 16 17 18 18 18 20 20 20 23 26 25 24 27 35 41 42 40 41 43 45 47 47 47 46 49 54 54 51
34 34 33 33 32 30 29 27 27 29 33 35 37 47 60 67 68 65 61 56 49 45 45 47 47 45 46 41 28 23 23 21 22 22 21 21 19 18 20 20 18 18 17 16 17 18 18 16 14 15 15 16 16 16 16 14 13 13 14 15 18 20 20 18 20 21 20 21 26 27 22 22 29 37 43 42 40 40 42 44 46 47 47 48 53 56 54 53
34 33 33 33 32 31 30 28 27 27 30 33 35 44 54 60 67 69 67 62 53 47 44 46 48 46 47 41 27 25 25 22 22 22 20 20 19 18 21 21 19 19 19 18 18 19 19 17 15 16 16 17 18 17 17 16 15 15 16 16 18 21 20 18 21 22 20 23 26 24 20 23 29 37 45 48 45 43 43 46 48 50 50 52 57 59 56 55
32 31 30 32 33 32 31 30 29 27 28 30 32 38 45 55 65 69 68 66 60 51 47 48 49 47 48 40 29 28 27 25 24 22 20 18 18 20 21 22 20 20 20 19 19 19 18 17 17 17 16 17 19 19 19 19 18 17 17 17 18 21 21 19 21 22 21 24 25 21 19 24 28 36 47 55 57 56 54 53 52 52 55 57 61 63 59 56
30 29 28 30 34 36 35 33 30 28 27 29 30 33 41 54 63 65 67 69 64 55 51 50 50 49 45 36 32 31 29 29 27 24 22 19 19 21 23 23 21 20 20 19 19 18 17 17 17 16 16 17 19 20 22 22 20 18 17 17 18 21 21 19 20 22 21 23 25 21 20 25 30 38 47 52 58 65 64 60 59 61 64 63 62 63 61 57
29 29 29 29 31 37 42 39 34 32 28 27 29 32 42 56 62 63 66 68 65 59 55 54 52 48 41 36 35 33 31 30 29 27 24 21 20 22 24 23 21 21 21 20 19 17 17 17 17 16 16 17 19 21 23 23 20 18 18 17 18 21 21 20 20 21 22 21 23 21 21 29 35 41 48 49 53 65 68 66 67 69 68 64 61 61 60 57
31 30 30 30 29 34 44 45 41 38 31 28 28 31 44 60 64 64 64 65 66 60 55 54 51 41 36 38 37 33 32 30 29 28 25 23 21 24 26 23 21 21 21 21 20 18 17 18 18 16 16 16 17 20 21 21 19 18 18 17 18 20 21 21 20 21 21 20 21 20 22 31 37 41 46 47 51 61 68 70 71 69 65 61 59 58 58 58
32 31 31 31 30 35 43 46 44 40 36 32 29 32 47 62 64 64 65 65 64 59 53 50 48 39 34 37 37 34 34 31 30 29 27 25 24 26 28 25 22 22 21 21 20 19 18 18 17 15 16 16 16 19 19 19 19 18 18 17 18 20 21 22 21 21 21 20 20 20 25 34 36 38 42 45 49 54 60 65 65 65 63 62 61 59 58 58
33 30 30 31 33 39 47 50 48 46 41 36 35 37 48 60 61 62 65 63 59 58 54 50 48 43 37 37 37 36 36 34 31 29 28 26 26 28 28 26 24 23 23 22 21 21 19 19 18 17 18 18 17 19 20 20 20 18 17 17 18 20 22 22 22 22 21 21 21 23 29 36 36 37 40 43 46 48 52 55 55 59 61 63 67 67 62 60
35 31 31 33 35 41 51 57 56 54 49 41 41 43 46 56 62 63 66 63 58 57 56 54 53 48 41 37 36 37 40 38 32 29 29 27 27 28 28 27 25 24 25 24 24 23 22 20 20 20 21 20 20 20 19 19 19 19 18 16 19 21 23 23 21 22 22 20 21 25 30 34 37 40 40 41 44 46 49 51 51 55 58 61 68 73 73 69
37 35 37 38 38 43 53 63 60 56 54 47 45 46 45 53 61 64 69 67 59 56 55 54 54 50 43 39 37 38 41 39 34 30 28 28 27 28 28 27 25 25 26 25 24 25 23 21 21 23 22 21 21 20 18 18 19 20 19 17 19 22 24 24 22 22 22 21 21 24 28 33 40 47 44 41 43 44 47 49 48 49 54 58 60 65 75 77
40 40 42 43 44 49 61 72 67 60 58 50 46 47 48 52 60 66 73 72 62 54 52 50 50 48 42 39 38 38 40 39 36 31 28 28 28 28 29 27 26 26 26 25 24 24 23 22 23 23 22 21 21 20 18 17 18 20 20 18 19 22 25 24 23 22 22 23 22 22 24 31 43 52 48 42 41 42 45 46 46 46 50 55 56 59 68 71
45 45 47 48 49 57 73 84 79 71 64 53 46 47 50 57 67 73 76 75 63 51 50 51 50 46 41 41 40 37 39 39 35 30 28 29 29 28 29 28 27 27 27 27 26 26 24 24 25 23 22 21 21 20 18 16 17 20 20 19 20 23 25 25 25 23 22 23 23 21 22 26 38 48 47 43 42 41 43 43 43 45 47 49 55 64 68 65
50 50 52 54 54 63 81 92 87 79 70 59 51 48 51 62 76 80 75 70 58 46 49 51 48 44 41 43 43 37 38 36 32 30 28 29 30 29 29 28 27 27 28 28 27 27 26 26 25 24 24 23 21 20 18 16 17 18 19 20 21 23 25 26 25 25 24 24 24 23 22 23 33 44 45 44 42 40 42 42 41 45 46 47 57 68 72 68
53 55 58 58 59 69 85 93 89 81 75 69 59 53 57 70 86 88 75 66 55 41 44 48 45 45 43 43 41 36 35 34 32 30 28 29 31 30 29 28 26 26 27 28 29 28 27 28 27 25 25 24 22 21 18 17 16 17 19 21 23 24 26 26 25 25 26 25 26 24 22 22 28 38 42 42 43 40 40 41 39 42 46 51 62 69 69 68
54 60 64 62 65 79 92 94 89 82 78 71 62 66 78 87 96 92 76 66 56 42 45 47 44 47 48 44 40 35 34 34 33 31 28 31 33 31 29 28 26 26 25 26 30 29 27 29 28 26 26 25 23 21 19 17 15 16 19 21 23 25 27 27 25 26 26 26 25 24 24 23 24 31 37 42 44 39 37 39 37 38 43 52 63 70 68 65
56 64 72 67 66 81 95 94 87 80 77 71 69 81 96 98 98 94 79 66 57 51 50 45 43 50 52 46 40 35 35 35 33 31 30 32 34 32 29 27 25 25 25 25 27 27 26 27 27 26 26 25 23 20 18 17 16 16 18 20 23 26 29 29 27 27 27 27 26 24 24 23 23 30 36 43 44 37 33 34 33 35 41 49 59 69 69 66
57 68 76 69 65 80 92 91 82 72 72 79 85 93 100 98 95 91 78 64 63 63 56 47 45 51 53 48 42 37 36 37 35 33 32 33 35 32 29 29 26 25 27 27 27 27 27 27 28 27 26 24 22 20 18 17 17 17 17 18 22 27 31 31 29 28 28 28 27 25 25 24 24 30 35 38 36 30 29 31 31 34 42 49 55 66 71 66
57 70 78 69 63 77 86 83 75 66 70 86 94 97 99 98 94 84 70 64 73 76 63 51 47 51 54 50 43 37 37 38 36 33 33 35 37 35 31 31 30 29 30 30 30 29 29 29 28 28 28 25 23 21 19 18 17 17 16 17 22 28 31 31 30 29 29 29 27 26 26 25 25 28 32 33 30 27 29 31 31 33 42 53 58 64 70 65
56 65 71 66 62 73 80 76 72 67 73 88 96 98 99 98 94 78 63 69 86 87 72 57 51 52 56 52 43 37 37 38 36 32 32 35 38 36 33 31 31 32 31 30 30 30 30 29 27 27 29 26 24 23 22 19 18 17 17 18 22 27 31 33 31 31 31 29 29 28 27 27 26 26 28 30 30 29 29 30 33 35 42 56 64 66 68 66
52 56 59 61 63 70 70 68 70 71 79 92 98 99 98 94 85 69 64 81 96 95 81 65 54 54 57 53 44 37 37 38 36 33 33 35 38 37 35 32 31 31 31 31 31 30 31 30 28 28 29 27 24 24 23 22 19 18 18 18 20 25 32 34 32 32 32 30 31 30 28 30 28 27 31 33 33 33 32 32 35 37 43 55 65 68 67 66
47 50 53 57 62 63 62 67 76 80 88 97 99 99 95 86 76 71 77 91 98 94 85 70 58 58 60 55 43 36 37 39 36 34 34 36 39 38 36 34 32 32 32 32 32 30 31 31 29 28 29 27 25 24 21 20 19 19 18 17 18 21 26 30 30 30 31 31 34 33 30 32 31 34 39 39 38 39 37 35 35 38 45 54 61 66 65 64
53 51 53 55 56 56 61 74 84 88 93 99 99 97 92 82 79 86 93 95 95 93 86 72 61 61 64 58 44 36 38 39 37 35 36 36 37 38 37 34 33 32 32 32 32 29 28 29 27 28 29 26 26 25 20 19 20 21 19 17 19 19 21 27 29 30 30 30 34 35 36 38 36 38 42 40 40 40 37 37 37 41 47 52 58 61 61 63
65 65 65 65 65 64 69 79 88 93 97 99 97 94 90 87 90 96 99 97 96 95 89 76 63 61 67 62 47 38 38 39 38 37 39 37 35 36 36 34 33 32 30 31 32 29 27 28 28 28 30 28 25 23 21 20 21 22 20 19 20 18 20 27 30 33 32 28 34 41 44 45 38 36 42 42 41 40 38 39 39 41 48 53 54 57 63 67
72 76 75 74 76 79 83 90 95 97 97 97 96 92 89 90 94 96 98 98 97 95 92 81 65 60 65 62 48 39 39 40 39 38 41 40 37 36 35 34 33 32 31 30 31 30 27 28 29 27 28 29 26 22 20 20 20 21 21 20 20 19 20 23 26 33 31 27 39 50 49 48 43 40 44 43 40 40 39 39 41 43 48 51 50 56 64 67
75 77 78 78 83 89 92 95 97 95 94 94 95 93 89 90 94 96 97 96 92 93 92 82 68 60 61 58 47 39 39 41 40 40 41 40 38 35 33 34 33 32 32 29 29 31 29 28 29 27 28 29 27 25 23 21 20 20 20 18 18 19 21 22 24 30 29 30 45 56 55 52 45 43 45 41 38 40 39 40 43 45 46 46 47 53 60 60
74 78 81 82 88 93 93 94 95 95 96 96 96 96 92 91 93 94 95 91 87 90 90 81 70 64 61 55 44 38 39 40 40 40 40 39 37 34 33 33 32 32 33 31 30 32 30 30 31 28 28 29 28 28 27 25 22 21 20 18 18 19 20 21 22 24 28 34 43 54 62 55 41 38 41 38 37 38 38 41 43 43 44 44 45 50 56 59
73 77 82 85 87 88 91 93 92 93 96 95 94 94 92 91 91 92 93 88 86 89 86 77 70 67 65 56 43 38 39 39 38 39 39 37 35 34 33 32 32 32 33 33 33 33 31 31 32 29 29 30 29 29 28 25 23 21 22 21 20 20 20 20 22 22 26 35 41 48 56 48 36 35 37 36 37 38 38 41 42 42 43 44 45 48 53 60
73 76 81 84 81 80 86 88 88 92 94 93 92 91 90 89 89 89 90 88 87 87 83 75 69 67 65 55 42 38 38 38 38 38 38 36 34 35 33 31 31 31 32 33 32 32 31 31 33 32 30 30 29 28 25 23 20 19 21 21 20 20 19 19 22 24 27 35 42 43 40 34 33 38 38 36 38 39 39 41 44 44 43 45 46 47 51 59
74 75 77 80 79 79 83 84 86 90 90 89 89 88 87 87 86 86 86 88 91 88 81 75 71 68 63 54 46 42 39 38 38 37 37 36 34 34 32 30 30 29 31 31 29 31 33 32 34 34 31 30 30 28 25 22 20 19 19 19 19 20 19 17 20 24 26 35 43 39 30 29 36 40 40 38 38 39 41 43 46 46 46 47 47 47 51 58
70 71 69 71 76 78 77 77 81 84 82 82 83 81 82 84 85 86 88 92 94 89 82 76 72 69 62 53 48 45 40 40 39 37 37 37 35 34 32 30 29 29 30 29 29 34 37 33 34 36 34 32 30 28 26 23 22 21 20 18 19 20 19 18 20 22 24 31 38 35 27 30 39 41 41 40 39 41 44 44 47 49 49 50 49 48 51 56
62 64 63 65 70 72 71 74 79 80 81 83 82 81 82 83 85 89 93 96 94 87 81 75 70 68 61 53 49 46 42 41 40 37 37 38 36 36 34 32 31 29 28 28 30 34 35 33 35 38 38 36 35 33 30 26 24 23 22 20 19 20 22 22 22 22 23 28 32 29 25 31 41 43 41 40 39 43 45 47 50 52 52 52 51 51 52 55
58 59 60 63 67 69 72 76 80 82 83 85 84 85 86 86 88 93 97 98 92 85 80 74 70 67 61 53 50 48 44 42 41 38 38 39 40 39 36 34 33 32 29 29 30 33 35 35 37 38 38 38 38 35 33 29 27 26 24 22 21 22 23 23 22 21 21 27 31 27 24 33 44 46 44 42 43 46 48 48 51 53 55 55 54 54 53 55
61 59 61 65 68 72 78 82 85 87 88 89 89 90 92 93 95 97 98 97 91 84 78 74 71 68 62 56 52 49 46 45 43 40 39 40 43 43 39 35 34 34 33 32 31 35 38 38 38 40 39 36 33 33 32 29 27 26 26 24 22 23 23 23 22 21 20 25 30 27 27 37 45 47 47 48 48 49 50 49 49 52 56 57 57 56 56 59
71 72 77 81 81 83 85 88 89 91 92 94 94 95 96 98 97 97 96 94 89 84 78 74 71 68 65 62 56 50 49 48 44 42 43 44 46 46 42 38 36 36 38 36 32 35 38 37 39 45 45 40 37 37 36 33 29 25 25 25 24 24 26 25 23 23 23 24 26 28 33 37 39 43 47 48 49 50 50 49 48 51 56 60 60 60 60 65
84 86 91 93 93 91 89 90 93 96 97 97 97 98 98 96 96 96 94 91 87 82 78 77 73 68 66 63 57 53 52 51 47 46 47 48 48 46 41 39 39 38 40 38 34 37 38 36 41 48 49 49 48 45 43 40 34 29 26 26 26 26 27 26 25 26 25 22 21 27 35 34 33 40 44 44 46 48 49 51 52 55 60 64 66 67 67 69
93 96 97 96 95 95 92 93 96 98 99 99 98 99 99 97 97 96 94 92 89 82 78 82 80 74 69 63 59 57 54 51 50 51 51 51 51 47 42 40 40 40 42 40 37 40 39 38 45 50 52 55 55 52 51 45 39 36 34 31 28 29 28 26 28 31 29 27 27 31 37 34 32 38 41 42 44 47 50 53 55 57 61 65 70 71 71 71
95 97 97 95 96 97 98 98 98 98 98 97 97 98 99 99 98 97 95 94 93 87 83 87 86 78 73 68 62 60 56 53 53 53 53 53 51 48 46 43 41 41 43 41 39 40 38 41 49 50 50 55 56 55 55 49 43 42 43 40 34 32 32 31 33 34 33 35 38 37 38 37 35 37 40 42 44 45 49 52 53 55 57 61 66 69 71 72
94 96 98 98 97 98 99 99 97 96 95 95 96 97 97 98 97 98 95 90 91 92 91 92 88 80 79 76 68 62 60 57 55 53 53 52 49 49 49 45 42 41 42 42 41 39 39 45 51 47 45 53 59 58 56 51 46 44 46 46 40 35 36 37 37 35 33 37 41 37 34 35 36 38 41 43 45 46 48 50 52 53 54 55 59 64 71 74
93 95 98 99 98 96 97 96 94 93 94 95 96 95 93 94 94 94 91 85 85 89 91 92 90 87 88 86 74 64 62 59 55 54 55 53 52 53 52 48 44 41 41 43 43 42 42 46 51 46 43 54 64 64 58 52 46 44 46 49 46 44 43 41 41 40 37 37 36 31 29 33 37 39 42 44 44 45 45 47 50 52 53 54 57 62 70 73